Location: Dzierzno
(50.6159°N, 19.2852°E)
Time: 07:03:35
(UTC+00:00)

Cosmos 1634 Rocket - Pass Details

Date: 18 November 2025
Orbit: 958 x 992 km, 82.9° (Epoch: 10 December)

Event Time Altitude Azimuth Distance (km) Brightness Sun altitude
Rises 17:42:21 0° 180° (S) 3,680 7.0 -26.6°
Reaches altitude 10° 17:44:52 10° 179° (S) 2,731 6.3 -27.0°
Enters shadow 17:50:04 61° 153° (SSE) 1,105 4.0 -27.8°
Exits shadow 17:57:49 - 12° (NNE) 2,911 6.4 -29.0°
Sets 17:59:50 0° 12° (NNE) 3,672 7.0 -29.3°
